Regional Weather Roundup
Issued by NWS Cleveland, OH

Home | Current Version | Previous Version | Graphics & Text | Print | Product List | Glossary On
Versions: 1 2 3 4 5 6 7 8 9 10 11 12 13 14 15 16 17 18 19 20 21 22 23 24 25 26 27 28 29 30 31 32 33 34 35 36 37 38 39 40 41 42 43 44 45 46 47 48 49 50
804
ASUS41 KCLE 242210
RWRCLE
OHIO REGIONAL WEATHER ROUNDUP
NATIONAL WEATHER SERVICE WILMINGTON, OH
600 PM EDT SUN JUL 24 2016

NOTE: "FAIR" INDICATES FEW OR NO CLOUDS BELOW 12,000 FEET WITH NO
SIGNIFICANT WEATHER AND/OR OBSTRUCTIONS TO VISIBILITY.

OHZ001>008-015>018-024>027-034-035-043-044-242300-
   NORTHWEST OHIO

CITY           SKY/WX    TMP DP  RH WIND       PRES   REMARKS
DEFIANCE       FAIR      89  73  59 S12G20    29.92F HX  97
FINDLAY        FAIR      87  69  54 S10       29.93F HX  91
TOLEDO EXPRESS FAIR      80  77  90 S6        29.92F
TOLEDO EXEC    FAIR      80  74  81 S9        29.93F
LIMA           FAIR      86  73  65 SE7       29.97F HX  93
$$

OHZ009>014-019>023-028>033-038-089-242300-
   NORTHEAST OHIO

CITY           SKY/WX    TMP DP  RH WIND       PRES   REMARKS
CLE-HOPKINS    PTSUNNY   83  66  56 SW6       29.97F
CLE-LAKEFRONT  FAIR      82  71  69 N5        29.95F
CUY CO. ARPT   MOSUNNY   82  75  78 N5        29.98F
LORAIN-ELYRIA  FAIR      79  70  74 S9        29.96F
ASHTABULA      FAIR      80  72  76 W9        29.99F
AKRON-CANTON   LGT RAIN  80  73  79 NW3       30.01S
WOOSTER        FAIR      80  72  76 CALM      29.99F
MANSFIELD      FAIR      82  71  69 S6        29.99F
YOUNGSTOWN     LGT RAIN  78  73  84 W3        30.01R
$$

OHZ042-051>053-060>062-070>072-077>081-242300-
  SOUTHWEST OHIO

CITY           SKY/WX    TMP DP  RH WIND       PRES   REMARKS
CINC-COVINGTON FAIR      93  73  52 SW8       29.98F HX 102
CINC-LUNKEN    PTSUNNY   93  74  53 SW7       29.96F HX 103
HAMILTON       FAIR      94  70  45 W9        29.97F HX 100
DAYTON         PTSUNNY   90  71  53 W14       29.98F HX  96
WRIGHT-PAT AFB PTSUNNY   92  75  57 W8        29.96F HX 103
DAYTON GENERAL FAIR      93  67  42 SW9       29.97F HX  96
WILMINGTON     LGT RAIN  87  77  72 CALM      29.99F HX  99
$$

OHZ036-037-039>041-045>050-054>059-063>069-073>076-082>088-242300-
  CENTRAL AND SOUTHEAST OHIO

CITY           SKY/WX    TMP DP  RH WIND       PRES   REMARKS
COLUMBUS       PTSUNNY   81  72  74 N6        29.97F
OSU AIRPORT    FAIR      82  73  74 NE6       29.98F
BOLTON FIELD   SUNNY     82  73  74 NE3       29.99F
RICKENBACK AFB FAIR      85  71  63 NE10      29.96F HX  90
NEWARK         LGT RAIN  78  73  84 CALM      29.98F
MARION         FAIR      85  69  58 S9        29.97F
LANCASTER      FAIR      87  76  69 N8        29.97F HX  97
ZANESVILLE     FAIR      84  70  62 NW8       29.99F
NEW PHILLY     FAIR      87  71  58 W12       29.98F HX  93
$$




USA.gov is the U.S. government's official web portal to all federal, state and local government web resources and services.